Saint Louis, MO

1:28 PM CST on December 05, 2016 (GMT -0600)
Lambert-Saint Louis International

Weather History for KSTL - July, 2014

Change the Weather History Date:

Wednesday, July 9, 2014

  Actual Average Record
Temperature  
Mean Temperature 77 °F 80 °F  
Max Temperature 87 °F 89 °F 103 °F (1936)
Min Temperature 67 °F 71 °F 54 °F (1961)
Degree Days  
Heating Degree Days 0 0  
Month to date heating degree days 0 0  
Since 1 June heating degree days 0 5  
Since 1 July heating degree days 0 0  
Cooling Degree Days 12 15  
Month to date cooling degree days 106 135  
Year to date cooling degree days 766 643  
Since 1 June cooling degree days 504 469  
Growing Degree Days 26 (Base 50)    
Moisture  
Dew Point 61 °F    
Average Humidity 61    
Maximum Humidity 81    
Minimum Humidity 40    
Precipitation  
Precipitation 0.00 in 0.14 in 4.04 in (1942)
Month to date precipitation 0.35 1.20  
Year to date precipitation 22.67 21.85  
Snow  
Snow 0.00 in 0.00 in 0.00 in (2015)
Month to date snowfall 0.0 0.0  
Since 1 June snowfall 0.0 0.0  
Since 1 July snowfall 0.0 0.0  
Snow Depth 0.00 in    
Sea Level Pressure  
Sea Level Pressure 29.97 in    
Wind  
Wind Speed 7 mph (NW)    
Max Wind Speed 16 mph    
Max Gust Speed 22 mph    
Visibility 10 miles    
Events      
T = Trace of Precipitation, MM = Missing Value Source: NWS Daily Summary

Daily Weather History Graph

Daily Weather History Graph

Search for Another Location

Airport or City:

Trip Planner

Search our weather history database for the weather conditions in past years. The results will help you decide how hot, cold, wet, or windy it might be!

Date:

Astronomy

Jul. 09, 2014 Rise Set
Actual Time 5:44 AM CDT 8:28 PM CDT
Civil Twilight 5:13 AM CDT 8:59 PM CDT
Nautical Twilight 4:34 AM CDT 9:39 PM CDT
Astronomical Twilight 3:49 AM CDT 10:23 PM CDT
Moon 5:40 PM CDT (7/9) 3:02 AM CDT (7/9)
Length of Visible Light 15h 46m
Length of Day
14h 43m
Waxing Gibbous, 89% of the Moon is Illuminated
Jul 9
Waxing Gibbous
Jul 12
Full
Jul 18
Last Quarter
Jul 26
New
Aug 3
First Quarter

Hourly Weather History & Observations

Time (CDT) Temp. Heat Index Dew Point Humidity Pressure Visibility Wind Dir Wind Speed Gust Speed Precip Events Conditions
12:51 AM 72.0 °F - 62.1 °F 71% 29.93 in 10.0 mi West 4.6 mph - N/A   Clear
1:51 AM 69.1 °F - 61.0 °F 75% 29.94 in 10.0 mi West 4.6 mph - N/A   Clear
2:51 AM 69.1 °F - 61.0 °F 75% 29.94 in 10.0 mi WSW 3.5 mph - N/A   Clear
3:51 AM 69.1 °F - 61.0 °F 75% 29.94 in 10.0 mi WSW 4.6 mph - N/A   Clear
4:51 AM 68.0 °F - 61.0 °F 78% 29.94 in 10.0 mi West 5.8 mph - N/A   Clear
5:51 AM 66.9 °F - 61.0 °F 81% 29.95 in 10.0 mi West 3.5 mph - N/A   Partly Cloudy
6:51 AM 70.0 °F - 62.1 °F 76% 29.95 in 10.0 mi West 4.6 mph - N/A   Partly Cloudy
7:51 AM 73.0 °F - 62.1 °F 68% 29.96 in 10.0 mi West 8.1 mph - N/A   Partly Cloudy
8:51 AM 77.0 °F - 63.0 °F 62% 29.98 in 10.0 mi West 8.1 mph - N/A   Partly Cloudy
9:51 AM 80.1 °F 81.7 °F 64.0 °F 58% 29.99 in 10.0 mi West 3.5 mph - N/A   Partly Cloudy
10:51 AM 82.9 °F 84.0 °F 63.0 °F 51% 29.99 in 10.0 mi WSW 10.4 mph - N/A   Partly Cloudy
11:51 AM 84.0 °F 84.5 °F 62.1 °F 47% 29.98 in 10.0 mi WNW 5.8 mph - N/A   Partly Cloudy
12:51 PM 84.0 °F 84.5 °F 62.1 °F 47% 29.98 in 10.0 mi NNW 16.1 mph 20.7 mph N/A   Partly Cloudy
1:51 PM 86.0 °F 86.3 °F 62.1 °F 44% 29.97 in 10.0 mi NW 11.5 mph 19.6 mph N/A   Scattered Clouds
2:51 PM 84.0 °F 85.4 °F 64.0 °F 51% 29.97 in 10.0 mi North 12.7 mph 19.6 mph N/A   Partly Cloudy
3:51 PM 84.0 °F 84.5 °F 62.1 °F 47% 29.97 in 10.0 mi NNW 12.7 mph 19.6 mph N/A   Scattered Clouds
4:51 PM 84.0 °F 83.3 °F 57.0 °F 40% 29.98 in 10.0 mi North 13.8 mph - N/A   Partly Cloudy
5:51 PM 82.0 °F 82.0 °F 57.9 °F 44% 29.98 in 10.0 mi North 10.4 mph - N/A   Partly Cloudy
6:51 PM 80.1 °F 80.2 °F 55.9 °F 43% 29.98 in 10.0 mi North 10.4 mph - N/A   Scattered Clouds
7:51 PM 75.9 °F - 55.9 °F 50% 29.99 in 10.0 mi North 6.9 mph - N/A   Scattered Clouds
8:51 PM 73.4 °F - 57.2 °F 57% 30.02 in 10.0 mi North 5.8 mph - N/A   Scattered Clouds
9:51 PM 73.4 °F - 59.0 °F 61% 30.04 in 10.0 mi North 4.6 mph - N/A   Scattered Clouds
10:51 PM 73.0 °F - 59.0 °F 61% 30.03 in 10.0 mi NNE 3.5 mph - N/A   Partly Cloudy
11:51 PM 72.0 °F - 59.0 °F 64% 30.05 in 10.0 mi NE 3.5 mph - N/A   Partly Cloudy